This demonstration page uses our WeatherBlox Daily Observations layout. Learn more.

36.17497, -115.13722

Hourly Observations for July 2, 2019

Temp ( °F °C ) Dew Point ( °F °C ) Humidity (%) Winds ( mph kmh ) Pressure ( in mb ) Visibility ( mi km ) Precip ( " mm )
12:53 am 00:53 Clear 86 30 29 -1.7 13 13 WNW 6 9 29.74 1007 10 16.09344 0 0
1:53 am 01:53 Clear 84 28.9 27 -2.8 12 12 W 3 6 29.74 1007 10 16.09344 0 0
2:53 am 02:53 Clear 81 27.2 28 -2.2 14 14 NW 7 11 29.74 1007 10 16.09344 0 0
3:53 am 03:53 Clear 78 25.6 29 -1.7 16 16 W 3 6 29.74 1007 10 16.09344 0 0
4:53 am 04:53 Clear 76 24.4 29 -1.7 18 18 Calm 29.77 1008 10 16.09344 0 0
5:53 am 05:53 Sunny 75 23.9 30 -1.1 19 19 N 5 7 29.77 1008 10 16.09344 0 0
6:53 am 06:53 Sunny 77 25 34 1.1 21 21 NNW 5 7 29.77 1008 10 16.09344 0 0
7:53 am 07:53 Sunny 83 28.3 33 0.6 17 17 NE 3 6 29.8 1009 10 16.09344 0 0
8:53 am 08:53 Sunny 86 30 30 -1.1 13 13 Calm 29.8 1009 10 16.09344 0 0
9:53 am 09:53 Sunny 92 33.3 28 -2.2 10 10 E 7 11 29.8 1009 10 16.09344 0 0
10:53 am 10:53 Sunny 96 35.6 23 -5 7 7 S 17 28 29.77 1008 10 16.09344 0 0
11:53 am 11:53 Sunny 98 36.7 22 -5.6 6 6 SSW 15 24 29.74 1007 10 16.09344 0 0
12:53 pm 12:53 Sunny 100 37.8 22 -5.6 6 6 SSW 18 30 29.74 1007 10 16.09344 0 0
1:53 pm 13:53 Sunny 101 38.3 21 -6.1 6 6 S 15 24 29.71 1006 10 16.09344 0 0
2:53 pm 14:53 Sunny 102 38.9 16 -8.9 4 4 SW 16 26 29.68 1005 10 16.09344 0 0
3:53 pm 15:53 Sunny 101 38.3 18 -7.8 5 5 WSW 16 26 29.68 1005 10 16.09344 0 0
4:53 pm 16:53 Sunny 101 38.3 20 -6.7 5 5 SW 16 26 29.68 1005 10 16.09344 0 0
5:53 pm 17:53 Sunny 100 37.8 20 -6.7 5 5 SW 16 26 29.68 1005 10 16.09344 0 0
6:53 pm 18:53 Sunny 98 36.7 17 -8.3 5 5 SSW 16 26 29.68 1005 10 16.09344 0 0
7:53 pm 19:53 Sunny 96 35.6 21 -6.1 6 6 SSW 16 26 29.65 1004 10 16.09344 0 0
8:53 pm 20:53 Clear 94 34.4 22 -5.6 7 7 SW 10 17 29.65 1004 10 16.09344 0 0
9:53 pm 21:53 Clear 92 33.3 25 -3.9 9 9 SW 12 19 29.68 1005 10 16.09344 0 0
10:53 pm 22:53 Clear 90 32.2 23 -5 9 9 SW 9 15 29.68 1005 10 16.09344 0 0
11:53 pm 23:53 Clear 87 30.6 24 -4.4 10 10 S 10 17 29.68 1005 10 16.09344 0 0

Powered by AerisWeather